Powrót do katalogu

BREEZE-M R/B

AktywnyHEO
NORAD 40385·ROCKET BODY·🇷🇺 Russia

Wystrzelony Feb 1, 2015 z Baikonur Cosmodrome

Loading…

Następne Przeloty (najbliższe 24 godziny)

TLE

ŚwieżeSource: Space-Track

Epoka: Sep 13, 2026, 12:30 UTC

1 40385U 15005B   26256.52118597 -.00000221  00000-0  00000-0 0  9996
2 40385  26.9556 266.5834 7568488 143.5916 305.8099  1.11107353 47135

Śledź BREEZE-M R/B w czasie rzeczywistym z AllMySat

Download on the App Store